GFSMA_500_spd_093.txt.gz
Wind_Speed
28 23 25 28 28 28 23 24 31 22 24 24 23 24 29 34 34 32 32 33 29 27 25 23 22 20 19 18 22 21 18 17 17 15 14 14 12 12 12 13 14 15 15
27 22 25 27 26 26 21 24 28 28 28 26 24 25 30 34 36 32 30 32 31 29 27 23 23 20 21 22 22 21 20 20 17 16 15 15 14 15 15 14 15 16 16
25 23 22 27 24 20 21 24 26 26 30 27 31 29 32 33 32 29 32 34 31 29 29 26 22 21 20 19 17 19 22 20 17 17 16 17 15 16 16 16 17 18 19
24 22 21 24 25 18 19 21 27 27 27 27 34 35 33 35 28 27 36 31 34 33 28 25 23 21 21 22 20 21 21 21 19 19 18 19 18 19 20 21 21 22 22
24 21 21 24 25 19 18 19 23 26 25 27 33 39 37 37 27 30 35 32 32 32 29 26 27 24 22 25 24 22 22 23 23 22 21 21 22 23 23 23 24 25 26
22 22 21 24 25 20 18 19 21 24 31 26 29 39 42 40 32 34 34 32 34 32 28 26 24 22 19 23 26 25 26 26 26 25 25 25 26 25 26 27 29 30 30
23 22 21 24 24 23 20 20 20 25 26 23 33 45 40 41 34 33 33 34 35 33 30 27 27 24 21 21 26 31 31 31 30 28 28 29 29 30 29 31 31 31 32
24 23 23 25 26 28 28 27 26 25 22 27 32 45 43 39 34 28 31 33 34 33 32 31 29 28 25 26 29 32 35 34 33 33 32 32 32 31 34 35 33 35 34
22 23 24 28 31 33 34 35 33 30 29 25 30 44 41 38 33 28 29 32 33 33 32 30 28 27 27 27 25 25 28 31 34 34 35 35 33 37 37 35 34 34 35
22 24 27 29 28 30 34 35 35 33 31 25 27 43 37 37 36 34 32 34 36 35 33 33 30 30 32 30 30 32 31 33 34 36 36 38 38 36 35 34 37 37 39
23 24 25 25 25 27 30 31 34 33 34 26 27 35 38 37 38 40 36 35 37 37 34 34 35 32 32 32 33 32 37 36 34 36 38 38 37 36 36 38 36 36 38
22 23 24 25 25 21 20 19 29 32 34 32 28 36 40 37 42 41 38 34 35 35 36 34 33 29 28 26 29 31 34 35 36 36 37 36 38 40 39 36 34 33 33
20 21 21 22 21 23 20 21 20 30 30 33 35 38 30 28 34 36 33 35 39 38 34 34 31 28 28 29 30 32 34 34 33 32 35 36 35 37 34 33 33 33 32
18 21 21 22 21 23 21 23 25 22 31 34 37 33 37 35 31 34 32 34 34 34 31 28 27 26 25 27 27 27 27 31 34 35 36 34 35 34 34 34 35 34 34
17 22 20 21 20 19 19 25 22 35 38 36 40 35 37 39 34 31 31 34 34 30 24 23 24 25 27 23 27 33 31 32 32 32 32 33 34 34 34 36 37 37 37
17 20 19 19 18 16 17 17 17 26 32 34 37 38 42 39 35 36 28 19 28 27 26 26 26 28 23 26 26 28 29 29 30 30 30 31 32 33 37 36 33 35 35
17 18 18 18 18 15 13 14 8 23 25 32 35 39 37 40 36 34 24 19 18 19 24 27 27 27 27 27 27 28 28 26 27 28 30 33 35 36 35 35 37 37 37
18 17 19 17 17 16 12 12 10 14 21 29 35 36 36 34 33 24 22 22 27 27 25 27 29 28 29 28 28 26 27 29 31 31 32 33 32 34 37 38 40 40 40
18 18 17 15 15 14 13 9 9 7 13 18 26 31 34 32 31 29 24 22 22 28 30 29 28 29 26 25 29 31 30 30 32 34 35 34 35 36 39 41 41 41 42
19 18 19 18 19 15 13 10 10 11 12 16 19 21 21 23 31 39 32 27 27 31 28 28 27 28 29 31 33 30 31 33 36 37 36 37 38 39 41 45 46 46 46
23 21 20 21 20 20 19 16 12 11 15 17 21 24 24 24 26 28 28 29 28 28 28 28 28 30 31 32 34 34 34 36 37 39 41 42 45 48 50 49 47 49 55
24 25 23 23 25 25 24 23 21 18 16 16 21 25 26 30 29 29 29 30 29 30 32 32 33 32 33 34 35 37 39 41 43 45 47 46 47 48 48 52 58 58 62
27 26 27 27 27 28 29 28 27 26 25 23 21 23 26 27 29 29 31 32 32 34 35 36 36 36 38 38 38 42 45 46 48 47 50 55 57 55 57 59 59 59 60
30 29 27 27 29 32 31 32 32 33 32 32 32 32 31 30 31 32 33 35 36 37 39 40 41 43 42 45 47 46 49 51 52 56 58 57 57 58 59 60 61 64 66
35 34 33 31 29 30 32 34 33 38 39 38 38 38 39 39 39 39 40 41 42 43 44 44 46 47 47 50 51 54 55 55 55 57 59 59 60 61 63 65 67 70 73
39 39 39 37 36 34 36 38 37 38 40 42 44 44 43 43 43 44 45 46 42 47 49 42 52 54 53 53 54 55 55 56 58 60 62 62 64 67 70 72 75 78 80

GFSMA_500_spd_096.txt.gz
Wind_Speed
30 28 28 29 29 27 30 30 28 28 30 29 23 23 21 25 29 32 30 28 27 27 26 24 23 22 20 19 18 16 18 14 13 15 14 14 14 14 13 13 13 12 13
30 27 27 28 28 27 29 29 28 27 30 27 27 26 21 21 27 32 32 30 31 28 27 25 24 23 22 21 21 17 19 18 16 16 17 18 16 16 15 15 15 15 15
29 26 26 28 27 26 27 25 26 25 27 25 26 26 28 30 29 30 32 31 29 30 29 27 25 23 22 20 22 22 22 21 19 18 20 18 17 17 17 18 16 16 17
27 23 25 28 26 23 22 20 20 22 27 27 31 30 28 31 32 30 31 33 34 30 30 29 25 25 23 21 21 20 17 19 20 20 20 20 18 18 18 19 19 19 20
24 22 25 27 26 21 19 22 18 21 25 27 25 30 27 35 34 31 30 37 33 30 29 28 25 25 24 23 22 22 21 22 22 21 21 21 19 19 19 18 20 22 22
23 22 26 26 25 22 20 20 21 18 24 27 26 32 28 40 39 33 32 39 33 29 30 29 28 28 27 26 25 24 26 24 25 23 22 23 22 21 21 21 22 24 26
24 25 27 25 24 23 21 22 19 21 20 21 24 30 29 44 39 36 34 36 29 30 31 30 30 28 26 26 20 21 24 27 27 28 26 27 27 26 25 27 28 28 28
25 27 28 25 24 24 24 25 26 26 25 22 24 27 24 41 41 41 39 36 32 32 31 31 32 30 29 25 25 25 27 31 34 32 31 30 30 30 30 32 34 35 35
26 28 28 26 24 26 27 29 32 33 33 32 28 28 31 44 47 44 41 35 32 30 31 33 35 34 32 30 29 30 31 30 30 33 32 32 32 33 33 35 32 33 34
28 28 27 25 24 28 30 30 32 34 37 36 34 32 28 40 45 43 41 38 35 32 33 35 36 35 34 32 32 35 31 31 29 28 30 31 31 33 36 37 38 36 35
29 29 26 23 26 26 27 29 31 32 34 34 34 33 28 38 47 39 36 35 37 35 37 38 37 37 36 36 36 35 33 33 33 35 35 33 32 34 37 39 39 38 38
32 28 25 24 23 23 24 27 29 29 34 36 34 33 27 33 37 34 34 35 35 36 40 41 40 39 38 37 35 36 33 35 37 35 36 38 36 37 37 38 39 37 36
31 28 24 24 22 21 22 23 26 30 26 32 34 31 27 28 32 39 39 34 35 39 41 42 42 42 40 38 37 35 33 31 32 33 32 33 32 33 36 39 37 36 33
31 28 23 23 21 21 22 26 24 27 23 25 31 32 30 32 31 36 39 40 40 42 37 38 44 44 39 40 37 35 32 32 33 32 29 30 32 34 37 35 33 33 34
30 28 23 20 19 19 22 25 23 28 31 30 28 34 34 33 32 33 31 31 35 35 33 35 35 37 41 40 35 30 29 32 32 32 32 33 35 34 32 32 33 34 34
29 27 21 16 17 18 21 21 23 25 29 29 35 30 33 34 33 41 36 31 31 32 29 32 29 29 29 29 30 31 31 31 32 33 33 33 32 32 31 31 32 34 34
30 25 19 14 15 17 19 20 18 23 21 30 38 37 35 40 33 39 38 34 32 21 23 30 28 26 29 27 29 32 32 33 32 30 32 30 29 30 33 35 35 36 37
28 24 21 15 16 14 14 15 14 18 14 25 30 35 37 41 41 38 39 34 32 25 22 25 28 31 32 32 30 31 31 30 31 32 31 31 33 33 33 36 37 38 39
27 24 21 18 17 14 13 11 12 13 13 22 26 32 39 40 39 37 38 32 26 25 25 30 32 32 30 30 31 32 32 32 32 34 34 34 34 36 38 39 40 40 40
26 25 22 22 17 15 14 12 8 10 10 9 18 32 33 34 32 35 30 33 33 25 28 28 35 32 30 31 34 31 32 34 36 37 37 38 38 39 38 38 42 43 46
27 26 23 22 20 18 16 15 13 10 10 12 11 18 23 26 24 26 33 33 40 38 35 32 34 33 34 33 35 34 36 37 38 39 39 39 40 41 42 45 47 49 49
31 28 25 24 23 22 21 19 18 17 14 12 14 17 22 24 23 24 26 29 35 34 34 35 35 36 36 36 35 36 36 37 38 40 42 44 45 48 50 52 51 53 58
28 30 28 25 26 25 25 24 24 22 21 19 18 18 22 27 30 30 30 32 37 38 37 37 35 35 36 37 38 39 40 42 44 46 47 50 52 53 54 56 59 62 62
38 28 36 28 28 27 28 28 28 26 26 26 25 24 24 27 29 32 35 35 36 36 36 37 38 39 41 41 43 45 45 45 49 51 55 55 57 60 60 61 65 66 66
39 40 38 37 33 31 30 29 28 28 29 28 32 34 32 34 35 36 38 39 40 42 43 43 44 45 46 46 47 47 50 51 53 53 59 63 63 64 64 64 66 68 69
38 40 41 41 40 34 37 35 33 32 32 33 32 35 40 42 42 43 43 44 45 46 47 48 49 49 49 49 51 53 54 56 60 62 61 63 64 66 67 68 70 71 72

GFSMA_500_spd_102.txt.gz
Wind_Speed
33 33 30 28 29 30 30 31 30 27 27 24 23 27 27 27 23 21 26 27 25 25 29 27 22 24 22 22 23 22 20 18 17 18 16 16 16 15 15 16 17 17 18
34 32 30 30 29 29 30 30 28 28 27 24 26 27 26 25 22 25 26 30 28 23 28 30 26 23 22 22 23 23 21 19 19 15 16 17 18 16 17 17 18 17 18
36 33 31 31 28 28 30 29 28 29 26 26 27 31 28 24 28 32 27 26 25 24 26 24 26 24 24 24 23 24 23 22 20 20 18 19 18 17 18 19 19 19 19
36 35 34 31 27 27 30 28 29 27 26 24 28 23 25 25 21 26 24 25 29 24 25 24 26 24 24 25 25 23 24 22 21 20 21 21 19 19 19 19 20 19 19
37 36 34 28 27 26 29 26 29 25 26 21 29 23 25 25 23 19 28 27 27 27 29 33 27 27 26 26 26 25 23 23 21 19 18 21 20 20 21 20 20 20 20
39 35 34 27 25 25 28 26 27 24 23 22 24 16 24 22 21 19 20 29 33 33 33 33 32 28 28 28 29 28 25 25 21 21 20 20 22 23 23 23 23 22 22
39 33 33 27 24 25 27 27 24 23 23 24 18 15 25 28 21 26 25 23 36 37 36 35 32 30 31 32 32 30 27 27 26 26 26 26 24 25 26 27 26 25 25
37 35 31 28 24 26 27 27 23 23 24 26 22 22 21 21 22 24 20 25 31 40 43 37 35 34 34 34 33 30 29 29 30 29 28 27 28 26 27 30 31 29 28
38 36 32 29 25 27 26 25 23 23 26 27 27 26 23 21 22 24 23 29 30 42 39 36 34 36 36 36 34 32 32 32 32 30 28 26 26 27 30 33 35 33 31
40 39 37 30 26 27 26 24 25 24 27 30 32 32 32 29 30 29 27 25 28 40 40 38 37 37 37 39 36 36 34 33 30 31 31 31 31 31 30 30 32 35 34
38 42 37 31 27 28 24 24 27 26 28 32 34 36 37 37 35 32 33 28 30 39 43 39 38 39 40 40 39 39 38 35 34 34 35 36 35 34 33 31 31 33 33
45 42 37 34 28 27 25 25 28 30 28 34 34 31 34 37 36 36 35 34 32 41 45 42 41 42 42 40 41 42 39 39 38 37 39 39 39 37 37 37 36 35 38
46 39 35 36 31 28 26 27 28 31 27 32 33 30 33 34 38 36 34 35 32 37 47 50 43 45 45 42 43 42 39 41 41 41 41 41 39 37 38 36 33 32 35
48 40 42 39 32 31 26 27 29 30 28 32 33 30 31 32 31 35 34 35 35 37 41 46 43 47 49 44 44 39 41 46 43 43 43 42 39 39 38 33 32 36 37
45 44 44 39 33 33 29 27 28 31 29 33 33 29 29 31 29 26 29 33 36 34 44 44 42 41 44 44 42 44 43 44 44 48 46 42 40 41 39 38 36 36 33
44 45 43 40 35 36 30 27 29 32 30 32 33 30 31 32 33 35 29 35 37 36 37 44 45 34 34 36 39 39 39 39 41 40 45 42 41 41 42 38 37 37 35
45 44 42 42 38 37 32 28 30 32 29 32 32 32 34 33 34 38 35 37 37 31 34 39 41 41 37 37 38 35 37 37 36 37 39 38 39 38 37 38 36 34 33
48 45 43 43 38 39 31 31 31 31 28 28 29 29 30 33 32 30 30 35 33 33 36 35 34 33 31 29 33 32 30 30 30 31 32 30 33 36 37 37 36 36 36
47 46 44 42 38 34 32 34 31 31 27 23 25 28 32 33 36 38 36 38 36 37 35 33 34 32 31 32 29 29 31 30 29 29 29 31 35 36 39 39 38 38 39
48 47 45 39 36 34 34 34 31 31 27 23 22 25 31 31 27 31 36 37 36 34 34 35 35 34 33 32 29 28 30 32 34 33 34 33 35 38 39 40 40 40 41
44 35 41 37 36 34 34 35 32 31 29 25 23 21 22 21 26 34 34 34 35 41 39 35 31 31 29 31 29 29 30 33 33 34 37 38 39 40 42 43 44 45 47
37 36 40 39 36 33 34 36 34 31 30 28 26 23 17 22 18 26 34 32 38 38 41 42 39 34 31 35 34 31 31 32 38 40 39 40 42 44 44 44 46 49 48
35 36 38 36 34 34 35 35 34 33 30 29 28 24 19 16 17 20 20 27 28 32 28 21 32 40 42 41 38 34 35 38 38 39 43 46 45 46 46 47 49 50 50
30 36 37 36 37 38 36 35 34 33 32 31 31 27 22 20 19 19 20 17 19 24 30 29 31 28 35 40 40 40 40 39 40 43 48 49 48 48 49 51 52 53 57
32 36 36 39 39 42 42 37 33 32 29 29 31 31 29 24 23 24 23 22 25 28 30 32 34 33 34 37 39 43 45 43 46 48 50 50 50 52 53 55 58 62 63
34 35 39 40 35 34 44 45 41 38 34 33 32 31 32 30 29 28 29 30 30 32 33 34 35 39 41 43 45 48 49 48 48 50 51 52 54 55 60 63 67 67 67

GFSMA_500_spd_105.txt.gz
Wind_Speed
34 38 31 29 29 30 27 24 27 27 27 25 24 22 22 23 21 23 23 25 22 23 21 29 31 23 23 22 23 23 21 18 16 15 15 13 20 18 16 17 18 17 18
33 37 36 33 31 29 26 24 26 27 26 24 24 22 24 26 23 27 24 27 25 25 24 30 32 25 22 26 25 24 22 22 18 17 17 12 17 19 18 17 17 17 18
36 36 37 39 33 29 25 26 25 26 25 23 23 23 23 27 28 25 21 30 31 23 30 30 29 34 27 27 26 25 24 23 22 17 17 15 18 20 19 20 19 19 18
38 38 35 40 36 30 26 25 24 25 24 21 23 22 23 25 23 22 22 26 27 28 31 29 32 23 32 26 27 25 25 24 23 20 19 18 20 24 23 21 21 20 20
38 40 38 40 37 31 26 23 23 24 21 24 22 20 24 20 22 21 24 21 28 29 31 31 32 20 30 26 27 27 26 24 22 22 20 18 21 23 23 23 22 22 21
40 42 40 40 38 32 27 21 21 23 21 24 21 20 22 19 26 20 28 18 25 27 31 34 26 26 25 27 28 28 25 24 24 23 23 20 19 23 25 24 24 24 23
43 43 43 39 40 34 27 22 21 22 21 23 20 19 17 17 25 23 17 18 21 31 32 34 32 31 31 30 31 29 28 28 27 28 28 25 22 23 24 25 25 26 25
45 44 42 37 41 34 26 24 22 23 20 22 21 19 19 19 18 27 26 29 27 22 37 37 36 35 33 33 34 33 32 30 31 29 29 31 26 26 29 26 25 26 27
47 44 43 40 41 33 28 27 23 23 21 21 20 21 21 20 23 25 26 25 23 21 28 41 42 37 40 36 36 35 33 33 33 33 31 32 30 27 28 28 27 28 33
48 46 43 40 42 38 29 29 26 23 24 22 23 23 23 26 27 25 26 26 24 26 30 35 46 44 41 36 36 36 36 37 36 35 34 33 33 32 28 29 29 31 30
50 46 44 44 44 44 30 31 27 25 25 23 24 25 25 28 32 31 31 31 31 30 30 34 40 43 40 39 38 38 38 39 38 37 35 33 33 33 30 31 33 33 32
50 45 47 48 47 41 31 32 29 27 27 24 25 27 27 28 30 31 33 35 35 33 31 30 40 45 46 42 39 40 41 40 40 39 38 36 36 35 35 36 37 36 35
47 41 47 43 45 49 36 34 31 28 28 26 26 28 28 25 27 29 31 33 36 36 36 33 43 47 50 43 41 41 44 44 41 38 42 38 39 39 38 38 38 37 37
47 47 45 47 43 47 38 35 34 29 28 28 27 29 29 26 29 31 32 32 35 37 37 37 38 49 51 45 44 41 42 43 43 43 35 40 41 41 40 39 39 39 38
43 50 49 52 51 48 38 37 37 31 28 27 29 30 32 29 31 33 34 32 33 35 37 38 36 41 49 48 46 47 49 49 45 41 39 40 43 45 43 40 41 40 39
55 55 50 51 49 44 37 39 38 32 29 29 30 31 33 31 32 33 34 34 36 30 33 38 38 41 36 43 51 48 44 45 43 42 42 45 44 43 46 47 42 40 42
53 46 49 53 49 42 41 40 40 34 30 31 31 31 32 33 34 36 36 38 40 38 35 39 39 38 45 46 45 40 39 41 40 40 41 40 41 40 42 44 43 41 40
45 46 51 52 48 47 43 42 40 34 33 32 31 30 31 34 36 36 35 36 39 38 37 36 40 36 37 40 48 41 38 39 42 41 40 40 42 42 42 41 40 39 37
42 46 51 52 49 47 45 41 38 36 34 33 32 30 30 33 33 35 33 36 39 41 37 43 38 34 37 42 42 44 39 37 38 38 37 35 33 33 33 35 36 37 39
48 50 50 49 48 47 48 40 37 37 34 33 32 31 29 29 29 30 35 39 39 41 35 36 37 39 36 35 36 38 35 35 32 33 34 32 32 33 33 35 37 40 40
42 49 47 43 48 48 48 38 34 35 32 33 32 31 29 30 26 28 29 26 28 35 39 43 41 38 35 32 35 35 36 35 34 33 33 34 33 33 34 36 40 39 39
37 45 48 47 46 50 45 37 34 34 32 33 32 32 29 31 29 25 27 25 30 33 37 39 37 40 33 32 36 34 35 33 32 31 33 36 37 34 37 38 40 42 43
42 43 47 46 53 45 43 36 35 34 32 34 32 34 31 30 30 27 24 22 31 37 39 38 38 40 43 37 38 36 37 35 36 36 37 39 39 40 44 42 43 44 47
24 35 37 42 36 39 38 36 35 33 32 34 34 32 34 31 31 30 27 23 23 23 29 34 34 36 35 28 32 36 40 41 41 40 41 42 44 42 42 46 48 50 51
33 25 27 33 36 36 38 38 35 37 37 33 32 32 33 32 31 32 31 27 22 27 22 22 23 25 28 32 32 31 33 37 39 42 42 48 50 47 44 49 53 54 55
33 23 28 33 32 34 38 39 37 38 39 36 36 33 32 30 29 29 31 33 30 27 26 30 32 31 37 38 36 35 36 37 43 47 47 48 50 50 51 53 55 57 59

GFSMA_500_spd_108.txt.gz
Wind_Speed
32 32 34 30 29 28 29 29 28 24 21 20 22 25 25 23 22 24 21 24 27 31 29 26 39 30 31 31 28 27 31 28 22 16 14 10 15 20 19 18 18 18 19
34 33 34 33 32 32 30 31 30 25 23 21 22 26 25 23 22 28 27 28 28 29 30 30 23 36 29 29 29 26 30 28 24 18 16 16 13 15 22 19 19 19 19
37 37 35 34 34 36 33 30 31 27 24 22 22 25 25 24 24 24 28 29 25 31 26 26 29 34 32 29 30 31 30 26 24 22 15 14 15 14 20 19 21 22 20
41 40 37 36 36 38 35 30 29 29 24 22 23 24 24 23 23 26 27 27 23 32 32 35 36 34 30 35 31 33 30 26 25 21 20 17 18 18 20 22 23 23 22
43 42 40 39 38 38 36 32 29 28 24 23 23 23 24 23 24 26 22 25 22 26 30 29 33 32 34 31 31 32 31 28 26 24 23 20 20 19 21 24 26 24 23
47 44 43 42 40 37 37 34 30 28 25 24 23 22 23 24 23 20 22 26 26 24 25 28 29 27 31 33 31 31 30 30 29 27 24 23 21 22 22 24 25 24 24
52 47 42 46 41 39 37 37 31 30 27 25 22 21 22 23 22 18 22 32 25 26 24 25 37 34 32 29 32 30 30 31 30 28 27 27 25 24 23 22 25 26 25
54 52 44 47 43 41 38 37 31 31 29 27 21 22 21 22 20 19 17 28 20 23 25 28 32 25 30 28 28 30 30 32 30 31 31 29 30 28 26 25 26 26 27
50 52 51 47 45 42 40 38 34 32 30 27 23 24 22 21 23 21 19 20 27 31 26 26 35 32 33 36 33 33 31 31 34 35 33 32 31 31 30 29 29 28 28
47 52 52 48 46 44 43 40 38 33 32 27 27 26 27 22 23 23 24 21 24 24 28 27 27 37 38 43 40 33 32 34 36 38 36 36 34 33 34 32 29 28 29
48 53 52 50 47 46 44 45 42 37 34 29 28 28 28 27 25 26 29 29 29 28 26 24 25 29 37 43 39 40 39 36 39 41 38 37 36 36 35 32 32 31 31
46 48 51 51 46 46 46 45 47 42 37 30 29 28 30 29 26 27 30 32 33 33 32 31 33 32 37 39 49 49 46 38 39 41 40 40 40 39 36 33 33 33 32
48 45 50 52 48 49 44 46 48 45 40 33 31 30 31 28 27 28 29 29 31 34 36 36 34 35 32 36 45 49 45 40 40 42 43 42 41 41 41 36 36 36 36
49 47 53 50 46 49 47 46 50 51 38 33 30 31 31 29 27 29 29 27 28 32 33 34 37 36 36 36 45 47 49 45 42 43 46 44 45 42 46 38 39 40 39
48 46 51 52 51 46 47 49 53 55 45 33 30 31 31 30 30 28 31 31 29 31 32 33 36 40 41 40 43 49 50 47 45 43 41 44 47 41 39 39 40 42 42
49 48 47 52 55 53 47 50 50 45 32 34 31 33 32 31 30 31 32 34 35 33 32 33 35 39 43 43 39 48 50 51 51 48 44 45 46 48 34 43 45 45 45
50 46 48 52 54 49 49 45 46 42 34 34 35 34 32 32 31 32 32 35 36 37 36 34 36 35 41 42 42 40 44 49 50 50 50 47 44 40 40 43 45 48 46
52 47 51 50 51 48 49 48 44 38 38 40 37 34 32 35 32 32 34 35 36 38 39 41 41 41 37 41 44 47 46 45 45 47 51 47 44 43 44 44 45 45 46
50 46 47 49 52 51 52 46 47 41 42 42 37 36 34 35 33 33 34 31 33 35 36 39 40 40 39 37 43 45 45 46 47 43 43 42 43 45 45 45 45 45 45
48 48 44 46 48 49 51 46 46 42 45 41 40 36 34 35 34 33 34 29 31 35 38 44 44 41 45 42 42 42 41 44 43 48 47 44 42 43 43 42 40 37 36
41 49 51 48 49 51 47 51 47 46 45 43 37 36 33 34 33 35 34 30 30 32 34 37 42 41 41 40 41 41 41 39 44 46 42 40 38 38 38 36 35 35 36
37 39 40 40 43 44 45 40 41 42 47 47 37 34 35 35 33 36 33 31 30 32 33 31 35 42 37 36 40 41 41 34 35 37 38 38 38 37 38 37 36 36 37
29 34 34 38 38 42 40 42 41 47 52 48 37 34 37 34 34 36 34 33 28 29 27 37 29 33 40 45 39 42 40 40 36 33 37 36 35 36 37 37 39 40 38
21 35 41 35 43 41 41 48 39 45 52 41 37 35 36 34 34 36 35 33 31 28 28 24 34 36 43 45 43 45 41 43 40 40 42 40 41 40 41 42 43 43 44
15 18 33 37 42 42 45 58 54 43 47 39 38 36 35 35 34 35 36 36 32 29 28 28 28 30 42 37 41 45 36 28 33 38 41 44 48 44 43 45 48 49 49
18 21 20 30 26 30 33 43 48 48 46 40 39 36 35 35 34 36 36 36 34 31 31 31 32 31 28 26 27 27 28 32 32 34 34 38 39 44 45 47 49 55 52

GFSMA_500_spd_114.txt.gz
Wind_Speed
37 38 40 39 37 34 31 32 29 29 26 24 25 23 25 23 22 23 25 28 29 30 26 27 28 26 32 23 32 37 30 29 29 27 24 22 20 18 17 17 17 16 16
38 40 42 43 40 35 36 33 32 29 29 27 26 27 25 23 23 23 24 28 31 32 33 31 34 30 29 34 35 39 38 33 32 29 26 23 23 18 18 18 20 19 18
40 38 40 37 40 41 36 36 35 33 30 30 29 28 28 27 26 24 25 26 32 32 33 31 34 30 31 28 26 40 40 36 33 32 29 26 25 20 17 14 18 22 21
38 38 39 37 39 43 40 38 39 37 33 33 32 31 27 27 27 26 27 29 29 33 32 35 36 32 31 30 32 34 41 34 35 35 32 29 27 25 24 18 15 17 21
40 42 43 41 43 42 45 42 42 41 37 36 34 33 30 27 28 27 29 31 29 31 31 34 38 31 29 30 30 24 42 37 35 35 35 33 30 26 24 21 18 17 21
46 44 44 42 41 44 43 45 44 43 37 38 36 36 31 29 29 27 29 29 30 29 28 31 30 28 26 27 29 36 35 41 39 36 35 35 34 30 26 23 21 20 21
49 48 47 45 40 43 43 48 48 46 40 39 39 36 36 31 30 30 29 28 28 28 26 22 26 27 28 30 27 31 33 42 43 37 37 36 35 33 31 26 24 23 22
53 50 48 45 43 42 45 45 50 47 44 41 41 37 35 33 30 32 30 29 27 25 25 21 23 29 20 23 25 23 29 36 41 41 35 37 36 35 33 30 26 25 23
55 55 51 48 48 43 45 46 49 50 45 44 44 40 37 33 32 33 32 30 28 27 24 24 21 26 24 21 22 25 30 29 35 35 33 38 38 37 35 33 29 26 24
51 51 48 46 49 46 47 47 48 49 48 49 44 40 38 38 34 33 33 32 29 28 26 24 26 23 17 17 18 25 34 39 35 36 32 36 39 38 35 35 31 28 28
49 50 48 48 47 48 47 50 49 50 51 51 44 41 41 40 38 35 33 32 29 31 29 27 28 26 21 18 18 24 30 38 36 43 39 36 37 37 36 37 34 32 31
54 53 53 53 49 46 47 48 51 51 53 53 49 45 42 41 40 37 37 34 30 28 30 29 29 30 25 23 22 20 34 33 37 44 38 36 38 37 38 38 38 37 34
60 58 58 56 54 49 47 50 52 51 52 54 51 46 45 45 40 39 39 36 33 31 27 30 29 30 28 26 27 25 25 27 41 36 41 42 37 38 39 40 42 45 42
62 62 61 60 57 52 52 51 52 51 52 53 54 51 44 50 42 42 41 38 35 35 27 28 31 29 29 30 30 29 30 30 30 30 33 40 43 39 40 37 40 41 42
66 66 65 62 63 56 56 55 53 50 51 52 53 50 51 50 48 48 42 39 37 34 31 28 30 31 31 30 30 31 31 33 35 34 35 39 41 45 43 43 41 41 44
66 71 73 71 65 60 57 55 53 51 53 53 52 52 49 49 47 43 38 43 40 36 30 30 31 31 34 35 33 32 32 32 32 37 36 35 37 46 49 50 45 43 41
54 56 58 65 69 62 57 55 52 49 53 52 53 53 49 44 49 32 46 44 42 37 31 30 31 31 30 35 39 35 31 31 32 33 39 40 43 43 47 50 52 51 49
42 45 46 52 57 56 57 53 52 51 52 50 50 47 42 43 41 42 40 42 42 40 37 31 33 34 33 30 35 39 37 34 36 34 33 39 43 48 46 49 45 47 49
42 47 48 46 48 52 50 51 52 51 50 52 47 43 43 41 42 44 42 46 43 41 38 33 32 35 35 33 33 36 38 38 36 35 37 36 40 43 42 43 47 49 50
27 40 51 45 44 47 54 51 52 51 51 49 44 45 47 44 42 47 46 43 43 43 38 38 35 35 33 33 32 32 34 38 38 35 37 39 39 43 46 44 40 42 46
20 16 40 41 42 41 43 45 48 49 49 49 46 46 46 41 37 32 40 47 44 43 39 39 37 36 33 32 33 34 36 40 44 44 42 40 40 38 43 44 44 47 49
19 17 27 36 30 33 41 40 44 47 49 43 45 46 42 40 36 38 45 47 43 41 40 39 37 37 34 35 34 37 38 40 38 35 34 45 42 42 40 41 43 47 50
13 16 20 33 37 41 45 46 44 44 44 46 45 40 39 38 36 37 34 42 43 43 41 39 38 38 35 39 37 36 36 33 31 36 40 41 37 38 38 39 39 39 39
21 22 15 17 25 37 44 45 44 44 46 47 44 36 47 45 41 46 43 40 42 45 43 40 39 39 39 40 38 37 34 32 35 37 39 41 36 36 40 42 42 41 43
14 23 27 20 20 20 22 26 32 38 40 37 37 41 40 44 48 42 45 47 41 48 46 41 41 41 41 39 39 36 35 33 30 34 36 39 43 42 46 43 38 39 40
7 11 15 21 31 30 26 32 29 40 45 42 45 36 49 43 40 46 48 48 44 48 50 44 42 42 43 41 41 39 37 35 34 30 34 41 46 47 48 45 40 44 46

GFSMA_500_spd_117.txt.gz
Wind_Speed
32 32 32 34 36 34 34 32 28 25 24 25 27 25 27 28 29 28 27 25 23 26 28 27 26 25 27 24 26 31 26 35 29 29 26 24 23 19 18 17 18 16 15
34 33 33 35 36 36 35 38 36 31 27 27 26 28 27 27 28 30 26 27 24 27 29 29 27 29 27 28 29 27 32 24 36 32 28 26 25 22 19 20 20 18 19
36 35 35 36 37 38 34 35 35 30 29 29 27 29 29 28 27 32 32 28 27 27 29 30 30 27 26 29 27 29 26 30 36 32 29 28 29 26 22 21 21 21 20
38 38 38 36 39 39 37 32 34 35 34 31 29 29 29 29 28 29 34 29 30 30 30 32 30 29 30 30 29 29 27 26 26 40 35 31 30 29 26 22 21 19 20
44 40 38 37 40 43 43 41 40 39 38 36 35 31 29 30 29 29 31 32 30 31 30 30 29 27 31 33 30 28 28 30 30 36 35 35 33 32 30 28 25 22 19
45 44 40 39 42 45 46 46 42 41 42 39 37 34 31 30 31 29 29 31 31 32 29 27 26 28 30 25 27 27 27 26 28 41 36 38 36 35 33 30 27 26 22
50 46 48 44 43 47 48 48 48 45 42 41 40 35 32 30 31 29 31 33 34 31 30 26 25 27 27 25 30 31 31 32 30 32 39 39 37 38 36 31 29 27 25
50 50 53 55 47 54 54 50 51 48 45 43 42 40 37 31 29 30 33 32 32 32 30 27 24 24 25 29 28 26 27 28 28 33 41 41 37 38 38 36 32 29 28
51 52 51 51 51 52 59 54 50 52 51 47 44 42 39 35 32 32 33 33 34 36 30 27 24 24 24 25 27 29 23 21 30 33 43 40 41 42 41 39 37 33 30
51 52 53 51 50 51 52 54 58 50 49 52 49 44 43 40 35 34 35 34 36 36 32 28 26 24 24 26 25 24 18 23 29 44 43 44 43 38 42 40 37 35 34
52 52 53 53 52 52 52 54 49 54 56 56 52 47 47 44 41 34 36 35 36 34 34 29 28 27 25 26 26 24 19 25 33 36 36 33 35 39 44 41 38 38 37
52 52 53 54 54 54 53 52 53 56 57 57 53 52 49 47 42 38 39 40 38 37 35 31 29 28 26 26 25 27 21 16 28 36 37 34 38 38 40 41 41 40 40
53 53 55 56 56 57 54 53 55 56 57 57 55 54 51 49 45 45 43 44 39 41 36 31 30 28 28 27 26 26 27 21 21 41 39 42 41 46 39 42 43 41 43
53 56 57 59 60 60 59 58 59 58 57 56 54 53 51 50 49 47 45 45 42 41 36 31 33 30 29 27 26 26 29 29 26 27 32 34 42 47 43 42 42 44 44
56 58 61 62 63 64 62 61 60 61 60 54 53 51 51 51 52 51 47 48 44 42 38 36 33 32 31 28 25 27 27 31 32 31 30 29 27 50 51 48 44 44 45
62 63 65 68 69 69 66 65 64 58 59 54 50 51 49 52 53 52 48 48 46 46 45 40 36 34 33 31 28 26 28 31 32 34 33 35 35 35 35 38 45 46 48
66 69 64 63 68 72 70 68 65 63 60 53 51 52 53 53 51 51 46 40 46 52 48 43 38 36 33 33 31 28 28 30 33 35 35 35 35 37 38 39 41 46 50
49 47 48 49 52 55 55 62 67 66 58 52 52 54 53 51 51 43 42 42 37 42 45 44 40 38 33 34 33 30 31 33 33 35 37 35 36 33 38 42 43 44 50
37 42 46 46 45 45 44 46 52 55 60 53 53 52 49 52 48 44 44 42 50 36 44 47 42 40 36 34 33 32 33 32 35 36 38 38 37 37 34 36 42 47 51
38 31 35 35 38 45 45 44 46 48 51 54 55 53 52 50 46 44 45 42 38 40 37 43 44 43 38 38 35 34 35 33 31 33 35 35 36 38 39 40 39 41 45
29 22 19 25 34 39 37 39 39 46 49 54 56 53 50 49 47 47 44 39 39 42 37 41 52 51 39 41 36 37 37 35 33 31 32 33 36 40 39 39 40 39 43
29 25 16 23 19 26 37 41 40 44 49 50 51 50 48 46 44 43 43 38 40 29 32 39 39 41 40 41 39 38 38 38 35 33 34 38 38 40 44 44 41 42 41
20 11 12 11 10 11 16 36 30 38 42 45 47 47 46 47 46 48 42 42 41 32 42 50 44 43 41 42 41 40 41 40 37 33 34 32 30 31 34 36 39 40 42
17 20 14 5 13 24 27 24 26 26 29 39 43 43 44 44 44 43 41 40 40 37 37 43 49 44 45 44 43 43 42 41 40 37 33 31 33 32 37 43 38 39 37
17 13 18 17 12 16 23 25 29 37 36 36 37 41 43 41 42 42 43 39 40 39 40 41 38 46 48 47 47 47 41 43 42 41 35 34 33 35 38 40 40 41 43
2 1 15 21 15 18 16 18 29 33 32 39 42 41 37 40 37 48 49 49 41 43 44 47 44 45 46 51 52 47 44 45 44 43 40 37 36 35 37 39 39 44 40

GFSMA_500_spd_123.txt.gz
Wind_Speed
47 48 45 42 39 38 37 37 36 33 31 30 30 28 29 27 26 27 25 23 22 20 18 20 21 23 22 21 22 22 21 21 20 19 20 26 30 27 27 26 22 20 19
54 53 53 50 44 43 42 39 39 37 35 32 32 31 31 30 28 28 28 26 25 23 21 21 21 21 22 22 23 24 21 20 20 19 27 22 33 30 29 29 26 23 22
56 59 50 54 53 50 47 42 43 41 36 33 32 32 32 33 31 29 29 28 26 27 25 22 21 21 24 23 24 25 22 22 23 21 24 27 34 33 32 31 28 26 24
50 57 48 49 51 60 52 47 44 44 39 34 32 34 34 31 31 32 31 30 29 27 27 26 24 23 24 25 23 24 22 22 24 25 23 20 22 31 33 33 32 30 24
48 51 51 53 68 65 59 51 47 47 43 40 36 39 38 35 32 31 32 31 33 31 30 28 27 26 25 25 24 23 24 25 25 25 24 24 25 31 38 35 35 32 29
52 50 49 54 49 60 66 53 50 51 45 44 41 42 44 40 37 36 34 35 36 34 33 31 29 27 27 26 24 24 25 25 23 22 22 24 28 30 38 38 37 35 33
51 49 50 50 48 31 64 53 54 52 51 50 46 46 49 48 42 38 36 38 37 37 35 33 30 30 28 26 25 24 26 23 22 21 23 25 25 34 38 39 40 40 36
55 51 48 50 49 43 47 41 37 44 44 48 47 54 52 51 48 42 35 38 37 39 37 37 31 30 28 28 28 26 28 26 23 23 26 28 31 32 37 43 45 43 39
55 50 49 51 48 44 46 46 44 43 48 46 50 50 63 50 50 49 37 38 39 36 35 39 36 33 31 29 29 28 28 28 26 25 26 30 30 35 36 42 47 45 42
58 51 50 50 51 50 49 51 50 51 47 51 40 57 43 43 42 41 40 43 40 37 35 39 40 36 33 32 30 31 30 28 29 28 27 32 36 37 38 39 49 49 44
60 57 49 51 51 52 51 52 53 53 50 50 51 42 45 49 47 45 49 41 41 35 36 39 42 39 35 34 33 35 33 32 32 32 31 31 37 40 46 40 48 49 45
56 60 56 53 52 52 52 52 53 54 54 53 50 48 49 50 46 46 42 46 36 36 39 39 40 40 39 37 34 35 37 33 33 34 33 33 34 31 41 39 47 49 45
57 59 62 60 57 57 56 56 57 58 55 55 55 53 52 54 54 47 48 44 41 40 39 38 42 41 39 40 37 35 37 36 32 34 33 34 28 32 31 45 43 45 47
57 58 60 61 60 58 57 56 57 58 60 60 58 57 58 61 59 52 51 53 51 50 50 45 45 43 40 40 41 38 35 38 34 34 33 32 32 27 37 44 47 49 50
56 57 58 60 61 61 59 58 58 58 60 60 60 61 60 59 59 58 54 53 51 53 53 49 48 44 42 44 43 38 35 37 36 33 32 31 30 30 33 40 39 45 42
52 54 56 57 59 61 61 60 59 58 59 61 61 60 59 60 60 58 56 54 52 48 53 50 49 43 42 45 44 39 36 40 37 35 32 31 29 27 30 24 38 41 38
49 51 52 54 56 57 59 59 58 58 59 59 61 60 59 59 61 60 57 56 55 56 48 53 48 45 44 46 45 42 41 42 41 35 34 31 30 31 29 31 31 31 38
47 51 54 55 56 56 57 58 58 60 62 64 65 66 62 62 63 62 58 58 54 53 54 49 45 44 47 48 49 46 44 42 44 39 37 35 30 30 30 31 32 33 33
50 51 52 55 57 57 58 59 60 62 65 67 68 71 71 70 67 66 63 60 55 53 51 53 49 48 47 50 49 48 46 46 47 51 42 40 36 33 31 31 35 36 34
61 62 61 60 60 61 61 62 62 67 68 69 69 66 68 70 69 71 73 66 56 52 52 48 51 49 46 49 50 45 45 49 53 50 45 44 39 37 35 35 35 36 40
37 39 44 51 61 65 64 62 65 61 55 52 53 53 57 60 62 62 63 64 57 53 52 48 54 47 47 48 44 44 50 46 47 55 49 44 42 39 38 37 35 35 35
29 25 30 28 22 29 37 36 40 43 47 55 56 51 50 56 59 54 55 59 59 54 51 49 49 46 43 48 45 42 43 43 46 47 46 49 46 40 38 38 36 35 36
21 19 16 21 20 21 23 29 36 39 39 38 35 35 42 42 42 47 50 54 54 53 52 52 46 46 49 50 44 44 49 52 47 48 53 55 47 42 40 39 38 37 37
11 11 7 8 14 14 17 20 19 19 19 28 29 24 28 37 39 41 48 52 52 51 53 51 48 48 48 45 45 42 43 45 44 49 55 55 55 50 45 41 39 41 38
9 4 5 3 6 9 13 2 6 11 11 16 21 23 19 29 39 40 44 45 49 54 53 50 51 48 43 39 44 46 48 41 47 41 43 51 53 50 43 42 41 43 43
13 15 16 12 2 7 7 5 6 9 10 8 12 14 22 26 31 40 40 46 46 41 49 47 45 44 42 42 40 42 41 40 40 44 44 44 46 45 43 41 42 43 45

GFSMA_500_spd_126.txt.gz
Wind_Speed
51 47 49 46 45 43 41 41 41 41 40 40 40 36 31 30 28 26 25 26 26 24 22 20 17 17 18 19 19 17 16 16 15 16 16 15 15 23 26 23 25 22 21
56 57 51 50 51 51 49 47 45 46 44 45 42 39 37 33 32 30 26 26 28 26 25 23 20 18 19 20 20 19 20 18 16 16 17 16 17 21 29 28 28 26 24
47 47 57 55 56 58 55 55 51 47 48 48 47 43 42 36 34 34 33 31 30 27 26 26 23 21 19 20 21 21 23 19 17 16 17 19 17 19 28 33 31 30 28
53 37 55 60 56 63 53 56 54 57 55 55 53 49 44 40 37 36 32 32 32 30 28 27 27 24 21 22 22 23 23 23 19 18 19 22 22 20 28 37 35 33 31
54 50 48 49 50 41 46 47 47 51 61 59 54 54 50 43 41 40 34 33 34 32 30 28 29 28 24 22 24 23 23 22 23 22 20 23 24 20 25 35 35 35 34
58 56 55 53 49 54 51 53 49 55 60 64 59 57 55 45 45 47 42 38 35 34 34 31 29 30 28 25 25 25 24 22 22 24 21 20 22 24 27 32 36 39 39
57 59 60 57 54 54 50 51 50 50 52 55 66 61 51 47 51 50 54 47 42 38 38 34 33 31 32 29 28 27 25 23 23 22 21 21 21 25 30 35 37 43 44
63 59 61 59 57 57 53 55 51 53 40 48 58 59 51 42 46 49 50 52 48 44 39 37 37 33 34 33 29 28 28 27 25 22 20 20 23 26 28 30 30 45 44
67 63 60 63 60 57 54 54 53 46 45 45 40 39 49 38 37 49 52 52 52 54 44 42 39 35 34 35 32 29 28 28 27 25 23 23 23 28 30 33 32 35 43
68 66 62 61 60 57 54 53 54 48 44 37 56 49 52 46 51 45 50 38 59 52 41 45 38 35 34 35 34 33 30 28 29 30 27 25 25 27 31 33 34 39 38
64 67 66 64 60 56 54 53 55 52 48 48 51 49 47 52 51 49 32 38 39 30 43 48 40 41 36 32 33 34 33 32 30 33 31 31 30 30 30 35 38 42 42
49 56 59 58 59 57 53 54 54 52 52 51 52 50 50 49 48 45 40 39 34 33 32 43 45 41 38 31 33 34 35 35 33 35 35 30 34 34 33 32 39 41 40
47 45 52 57 57 56 53 51 53 52 51 51 52 51 49 47 46 45 45 45 42 35 37 37 47 41 36 33 33 35 38 38 35 36 38 33 33 34 33 33 32 35 41
39 45 45 45 54 57 58 55 55 56 56 55 54 53 52 50 48 48 47 48 49 47 44 41 36 37 31 34 34 34 39 38 37 39 38 37 32 33 31 33 31 33 51
43 50 55 53 52 55 59 60 57 57 57 57 56 55 54 53 52 52 50 49 50 50 46 46 44 43 40 40 37 39 44 42 39 40 40 38 32 31 32 31 21 35 42
48 50 51 49 48 50 57 61 59 58 58 58 58 58 56 54 54 53 55 54 50 51 52 46 44 44 48 45 44 44 48 43 42 41 41 37 33 31 31 31 29 28 42
40 41 41 43 46 48 51 56 60 57 57 58 58 59 59 58 55 54 55 57 57 53 53 50 46 43 41 44 49 49 46 46 42 42 43 40 36 33 30 30 27 30 28
44 47 48 46 45 47 52 53 55 56 56 56 56 55 55 58 57 55 55 56 55 51 50 49 47 47 49 47 47 54 49 49 46 44 42 41 38 37 32 31 28 26 30
48 51 52 52 52 51 49 51 54 56 56 55 55 55 55 56 56 56 57 58 58 58 55 54 50 48 49 46 45 48 48 51 48 46 45 44 41 42 37 35 32 29 27
53 57 57 58 57 56 56 54 54 56 56 55 56 56 57 57 58 60 61 63 63 62 60 59 54 51 47 47 46 47 51 51 50 47 47 48 46 46 43 41 37 36 32
39 38 37 35 35 42 50 55 58 57 56 57 57 56 58 61 63 65 66 65 66 69 69 67 62 54 51 51 50 51 52 50 49 50 50 51 49 50 47 42 41 38 36
38 37 35 33 34 34 35 36 46 56 56 56 59 61 59 61 60 55 54 52 53 69 56 65 64 62 58 53 49 48 50 50 48 48 50 52 48 50 53 50 43 39 39
28 28 30 30 27 25 27 24 24 31 40 47 51 51 46 47 52 54 52 52 55 59 57 58 57 57 58 53 51 50 51 51 48 50 51 46 45 44 45 51 44 40 42
18 17 13 9 8 8 11 20 18 20 25 30 35 39 37 35 29 33 36 38 52 53 53 56 53 57 55 53 52 49 48 51 46 47 48 47 50 48 44 49 44 44 43
7 10 11 15 16 5 4 7 5 10 13 11 10 18 28 25 29 32 31 40 37 40 43 47 51 53 49 52 48 49 50 51 48 49 43 51 58 54 51 51 52 51 50
10 13 16 17 18 18 11 7 3 6 13 14 8 13 20 24 25 26 31 33 35 36 41 46 50 51 51 50 48 49 52 50 47 50 54 55 52 53 52 43 47 51 53

GFSMA_500_spd_129.txt.gz
Wind_Speed
42 43 44 46 50 49 53 52 48 44 43 38 40 38 37 34 34 33 32 29 27 26 26 23 21 19 19 19 17 15 14 13 14 14 15 15 14 11 20 25 23 20 24
45 46 47 46 43 48 54 55 51 50 46 43 43 40 39 38 37 37 36 34 32 29 28 26 24 22 21 19 19 17 15 15 15 16 16 17 15 14 13 25 26 24 26
50 49 48 50 43 47 51 58 59 52 49 48 45 44 43 42 44 42 40 39 37 33 31 31 27 26 23 21 20 20 17 16 16 15 16 15 16 17 19 21 27 29 30
53 56 53 51 52 49 47 62 62 60 56 36 54 51 51 51 49 51 45 42 41 39 37 35 32 28 27 24 22 22 21 19 18 17 15 16 16 19 21 26 30 33 34
60 60 60 56 55 48 50 47 44 49 41 36 40 45 45 52 55 57 54 46 46 43 39 37 37 31 30 27 25 23 23 22 20 19 18 18 19 21 26 25 31 36 38
65 66 65 62 59 54 52 49 51 46 41 40 47 45 45 46 51 57 59 53 49 46 41 40 39 37 34 30 29 26 25 23 23 22 21 20 19 21 23 28 27 37 43
68 70 72 68 65 61 59 57 51 50 49 53 50 49 42 47 44 65 63 59 53 56 53 46 42 39 37 33 32 30 27 27 25 25 22 21 21 20 21 25 27 28 38
66 68 70 72 69 65 64 65 58 54 54 50 55 53 49 47 45 51 64 57 56 55 49 47 49 47 41 38 35 33 31 28 25 25 24 22 22 22 20 22 26 30 34
63 64 69 70 67 66 63 65 64 60 56 54 54 53 50 46 41 40 49 51 48 49 50 46 52 55 47 41 35 34 34 31 28 26 26 26 24 23 22 24 28 31 33
61 63 65 67 67 65 60 61 64 62 61 59 55 52 47 46 41 31 35 47 48 51 51 47 50 55 54 40 36 36 35 33 31 29 28 27 27 26 24 23 26 28 31
58 61 61 66 66 66 66 59 60 62 59 58 56 55 52 46 48 46 47 41 58 50 54 54 44 53 55 43 37 35 35 35 33 32 31 29 29 30 30 28 26 28 32
48 50 49 45 51 54 55 59 61 59 59 58 56 58 54 49 51 55 51 48 49 39 40 36 35 38 46 46 40 34 36 38 35 35 33 32 32 32 32 33 31 32 32
45 42 39 34 36 41 45 45 49 55 56 57 57 58 58 54 55 53 51 50 44 43 41 32 27 30 29 35 38 39 33 37 40 37 35 36 34 36 33 34 32 33 36
43 35 38 39 38 39 42 45 44 47 56 56 56 59 60 58 55 52 48 49 46 41 37 36 37 34 30 35 34 42 36 36 36 36 37 40 38 38 38 35 35 33 36
35 38 39 41 41 44 46 46 48 48 49 58 58 58 58 57 56 55 50 47 46 44 41 38 40 40 39 37 33 32 35 37 38 40 39 38 40 40 40 39 35 34 34
43 42 45 44 46 49 50 53 55 54 55 55 60 61 59 58 57 56 55 49 46 47 44 42 43 40 41 42 43 41 40 40 41 42 43 43 44 43 42 40 32 32 33
37 41 45 52 53 47 44 40 41 49 54 54 53 55 59 61 57 55 52 51 51 48 48 42 43 43 44 42 46 49 50 51 50 49 47 48 48 45 44 41 35 31 30
45 48 49 43 40 42 44 45 44 43 46 54 53 52 54 59 57 53 51 50 49 51 52 49 44 44 44 44 45 48 52 54 51 51 51 53 51 46 46 46 39 32 30
43 40 40 42 45 48 50 51 51 50 48 47 53 54 52 55 57 56 53 51 51 51 53 53 48 46 45 45 48 49 51 50 51 51 51 52 54 49 48 48 42 38 33
39 42 44 46 44 42 43 47 53 55 52 50 50 52 54 53 53 55 55 54 53 54 53 54 54 53 51 50 50 51 51 53 54 55 51 51 55 51 50 49 45 41 38
34 36 37 33 37 35 34 36 38 42 50 53 51 51 52 51 52 53 55 56 56 55 55 55 56 57 58 57 56 54 52 52 52 52 51 50 52 53 51 50 49 47 45
24 27 30 37 33 33 35 36 37 34 36 45 51 52 50 50 51 53 55 54 54 56 56 58 59 61 65 63 61 60 55 57 54 52 54 53 52 51 51 51 49 49 46
13 16 18 23 30 29 31 24 26 25 28 30 38 46 48 49 52 55 56 56 58 60 60 59 54 51 64 66 67 66 61 55 55 55 56 57 58 52 52 52 51 50 49
3 4 8 10 10 11 4 4 9 23 34 25 17 26 34 39 42 47 51 51 50 52 53 54 53 50 49 58 59 63 61 62 61 57 57 56 57 51 50 52 51 47 46
6 6 6 7 11 17 18 15 10 5 10 14 18 18 20 25 32 36 41 44 41 37 48 58 52 55 54 53 52 58 61 62 62 60 57 56 56 50 47 51 52 47 48
13 14 16 18 19 20 22 19 21 18 6 8 10 12 18 16 19 14 23 18 22 26 26 31 46 33 42 45 50 53 58 57 60 58 55 56 54 55 58 56 55 54 55

GFSMA_500_spd_132.txt.gz
Wind_Speed
41 41 42 41 40 41 41 43 45 44 42 50 46 43 41 37 35 34 32 30 30 31 31 29 26 23 22 22 21 18 18 18 16 14 12 13 14 16 14 22 26 24 24
45 44 45 45 44 42 44 47 47 45 45 43 47 50 44 44 39 38 36 34 33 33 34 33 31 28 25 24 24 23 20 20 19 16 14 13 16 19 18 19 26 25 26
47 49 47 47 48 47 47 49 51 41 46 46 49 53 53 48 43 39 42 40 37 34 38 39 34 34 30 28 28 27 24 22 22 20 17 15 15 16 22 19 22 30 26
56 52 53 54 55 54 49 52 45 52 52 49 46 45 50 42 48 47 46 44 46 42 39 40 41 38 35 33 32 30 28 26 24 23 20 18 16 16 17 16 21 27 31
59 60 59 60 62 61 59 56 55 56 53 48 45 36 41 46 32 37 44 49 47 46 49 43 46 43 41 37 36 33 30 30 27 25 23 22 20 19 19 22 25 28 32
64 65 66 65 66 67 66 65 61 59 54 54 52 44 43 38 28 37 41 45 45 48 50 49 47 46 44 43 40 37 34 32 31 27 25 25 24 22 21 22 26 30 28
69 71 71 71 71 73 71 70 65 64 59 54 57 51 44 48 46 40 43 45 43 49 52 49 50 47 46 42 42 39 38 34 33 31 26 25 25 25 23 23 26 30 35
63 67 70 73 74 73 75 73 71 66 65 58 58 55 52 48 51 47 47 50 51 50 52 52 54 52 49 51 46 45 42 38 34 33 33 29 27 26 24 27 27 28 33
57 64 66 68 70 71 71 71 70 67 64 60 59 58 53 54 51 49 46 49 47 50 49 51 52 53 47 50 42 47 50 41 39 36 34 31 29 29 26 26 27 25 27
59 57 64 69 67 66 67 67 67 67 63 59 60 63 58 55 54 53 47 48 43 36 35 40 42 45 44 51 45 46 50 44 42 40 36 36 31 32 30 27 27 27 25
55 61 60 65 67 67 67 64 64 65 68 63 59 63 64 58 57 57 59 53 50 46 38 35 38 39 43 45 50 49 45 47 41 42 39 38 35 31 32 29 28 29 29
53 56 55 54 58 63 64 61 64 57 61 64 62 61 62 64 62 59 60 59 56 49 47 39 39 46 50 53 51 51 47 47 46 44 40 39 38 35 34 34 31 30 32
45 48 50 49 50 53 51 50 49 49 50 47 45 52 63 60 60 61 58 53 54 51 50 45 44 43 40 41 47 46 45 48 48 43 41 39 40 38 38 36 34 33 33
41 38 40 47 49 45 50 47 41 47 51 50 50 49 50 59 61 61 59 58 54 51 52 49 45 41 41 35 33 32 41 44 45 51 43 40 40 40 40 40 38 37 35
36 39 43 45 42 40 43 44 44 45 47 51 51 51 49 51 56 62 62 60 57 57 55 51 47 43 43 44 44 41 30 34 41 44 48 46 41 41 41 41 41 40 39
34 33 34 42 42 42 47 46 47 48 48 49 52 53 51 50 53 57 59 61 60 58 56 50 48 45 45 45 44 42 39 42 39 46 42 48 43 40 39 40 42 41 42
37 36 34 38 45 47 47 52 52 53 54 55 51 52 61 59 56 57 58 57 58 57 59 50 49 47 47 46 46 46 46 46 42 45 49 47 44 43 42 45 47 45 45
41 42 43 43 45 48 52 56 55 49 49 50 49 47 48 54 60 59 60 58 55 53 56 54 48 50 50 49 50 50 48 49 50 47 52 53 51 47 47 48 50 49 48
41 42 46 47 47 47 46 45 46 49 51 52 52 52 51 50 52 59 62 58 56 54 54 56 49 50 50 51 50 50 50 51 49 53 53 56 56 55 54 54 55 52 49
31 34 37 40 43 45 48 51 50 52 54 54 57 58 57 53 50 54 58 61 57 55 54 54 53 50 51 50 51 50 52 52 52 52 53 55 55 55 56 57 57 53 53
33 36 38 39 42 43 40 39 43 44 43 45 46 49 59 56 54 52 54 59 59 55 53 53 53 53 51 53 52 52 51 50 51 51 52 53 56 58 57 56 54 54 56
24 26 28 32 34 32 33 33 34 35 38 41 43 42 41 56 57 53 51 51 55 55 55 55 56 57 55 55 55 54 54 55 54 53 55 55 58 59 60 62 61 58 56
23 24 22 21 20 17 23 27 29 28 27 27 31 38 35 37 52 53 49 48 50 50 52 54 56 57 57 56 55 56 58 59 58 59 61 61 60 59 60 60 59 57 56
19 22 17 13 8 6 11 12 10 10 14 17 18 20 20 25 35 51 51 49 50 50 51 52 54 55 56 58 58 59 61 63 69 68 67 64 62 61 64 63 61 59 56
6 8 9 6 7 6 10 13 13 19 17 12 6 27 29 20 19 29 42 51 54 54 55 56 56 55 57 60 64 65 64 59 62 63 65 67 70 67 66 66 63 60 60
7 11 15 15 15 18 22 21 20 10 14 18 19 12 3 18 30 31 32 31 35 43 50 50 52 56 58 60 60 61 63 67 69 70 64 69 71 70 70 67 65 61 61